Weather History for KC09 - September, 2013

Change the Weather History Date:

Saturday, September 21, 2013

  Actual Average (KLOT) Record (KLOT)
Temperature  
Mean Temperature 59 °F 63 °F  
Max Temperature 70 °F 74 °F 90 °F (2007)
Min Temperature 48 °F 52 °F 39 °F (1995)
Degree Days  
Heating Degree Days 6 4  
Month to date heating degree days 40  
Since 1 July heating degree days 48  
Cooling Degree Days 0 2  
Month to date cooling degree days 79  
Year to date cooling degree days 832  
Growing Degree Days 9 (Base 50)    
Moisture  
Dew Point 49 °F    
Average Humidity 76    
Maximum Humidity 100    
Minimum Humidity 42    
Precipitation  
Precipitation 0.00 in 0.10 in 0.77 in (1992)
Month to date precipitation 2.28  
Year to date precipitation 30.10  
Sea Level Pressure  
Sea Level Pressure 29.88 in    
Wind  
Wind Speed 5 mph (NW)    
Max Wind Speed 12 mph    
Max Gust Speed 23 mph    
Visibility 10 miles    
Events      
T = Trace of Precipitation, MM = Missing Value Source: NWS Daily Summary

Daily Weather History Graph

Daily Weather History Graph

Search for Another Location

Airport or City:

Trip Planner

Search our weather history database for the weather conditions in past years. The results will help you decide how hot, cold, wet, or windy it might be!

Date:

Astronomy

Sep. 21, 2013 Rise Set
Actual Time 6:40 AM CDT 6:52 PM CDT
Civil Twilight 6:12 AM CDT 7:19 PM CDT
Nautical Twilight 5:40 AM CDT 7:52 PM CDT
Astronomical Twilight 5:07 AM CDT 8:25 PM CDT
Moon 8:00 PM CDT (9/21) 9:00 AM CDT (9/21)
Length of Visible Light 13h 07m
Length of Day
12h 11m
Waning Gibbous, 94% of the Moon is Illuminated
Sep 21
Waning Gibbous
Sep 26
Last Quarter
Oct 4
New
Oct 11
First Quarter
Oct 18
Full

Hourly Weather History & Observations

Time (CDT) Temp. Dew Point Humidity Pressure Visibility Wind Dir Wind Speed Gust Speed Precip Events Conditions
12:15 AM 54.5 °F 54.5 °F 100% 29.85 in 10.0 mi West 5.8 mph - N/A   Clear
12:35 AM 54.0 °F 54.0 °F 100% 29.85 in 10.0 mi WNW 5.8 mph - N/A   Clear
12:55 AM 52.9 °F 52.9 °F 100% 29.85 in 10.0 mi WNW 4.6 mph - N/A   Clear
1:15 AM 52.3 °F 52.3 °F 100% 29.84 in 10.0 mi WNW 5.8 mph - N/A   Clear
1:35 AM 52.0 °F 52.0 °F 100% 29.84 in 10.0 mi WNW 5.8 mph - N/A   Clear
1:55 AM 51.4 °F 51.4 °F 100% 29.84 in 10.0 mi WNW 4.6 mph - N/A   Clear
2:15 AM 51.1 °F 51.1 °F 100% 29.84 in 10.0 mi WNW 6.9 mph - N/A   Clear
2:35 AM 51.8 °F 51.8 °F 100% 29.84 in 10.0 mi WNW 4.6 mph - N/A   Clear
2:55 AM 52.0 °F 52.0 °F 100% 29.83 in 10.0 mi WNW 3.5 mph - N/A   Clear
3:15 AM 52.2 °F 52.2 °F 100% 29.83 in 10.0 mi Calm Calm - N/A   Clear
3:35 AM 51.8 °F 51.8 °F 100% 29.83 in 10.0 mi WNW 3.5 mph - N/A   Clear
3:55 AM 52.2 °F 52.2 °F 100% 29.84 in 10.0 mi NW 3.5 mph - N/A   Clear
4:15 AM 51.4 °F 51.4 °F 100% 29.83 in 10.0 mi WNW 4.6 mph - N/A   Clear
4:35 AM 50.9 °F 50.9 °F 100% 29.83 in 10.0 mi WNW 5.8 mph - N/A   Clear
4:55 AM 51.1 °F 51.1 °F 100% 29.84 in 10.0 mi NW 5.8 mph - N/A   Clear
5:15 AM 51.3 °F 51.3 °F 100% 29.84 in 10.0 mi NW 5.8 mph - N/A   Clear
5:35 AM 51.1 °F 51.1 °F 100% 29.84 in 10.0 mi NW 5.8 mph - N/A   Clear
5:55 AM 50.9 °F 50.9 °F 100% 29.84 in 10.0 mi NW 4.6 mph - N/A   Clear
6:15 AM 51.1 °F 51.1 °F 100% 29.86 in 10.0 mi NW 4.6 mph - N/A   Clear
6:35 AM 51.8 °F 51.8 °F 100% 29.86 in 10.0 mi NW 5.8 mph - N/A   Clear
6:55 AM 52.0 °F 52.0 °F 100% 29.86 in 10.0 mi NW 4.6 mph - N/A   Clear
7:15 AM 52.3 °F 52.3 °F 100% 29.87 in 10.0 mi NW 4.6 mph - N/A   Clear
7:35 AM 53.2 °F 53.2 °F 100% 29.87 in 10.0 mi NNW 3.5 mph - N/A   Clear
7:55 AM 54.7 °F 54.5 °F 99% 29.88 in 10.0 mi NNW 5.8 mph - N/A   Clear
8:15 AM 55.6 °F 54.3 °F 96% 29.88 in 10.0 mi NNW 5.8 mph - N/A   Clear
8:35 AM 56.7 °F 53.4 °F 89% 29.89 in 10.0 mi NNW 4.6 mph - N/A   Clear
8:55 AM 58.3 °F 53.4 °F 84% 29.89 in 10.0 mi NNW 4.6 mph - N/A   Clear
9:15 AM 59.2 °F 52.7 °F 79% 29.89 in 10.0 mi NNW 5.8 mph - N/A   Clear
9:35 AM 60.6 °F 51.8 °F 73% 29.90 in 10.0 mi NNW 5.8 mph - N/A   Clear
9:55 AM 62.1 °F 49.8 °F 64% 29.90 in 10.0 mi North 3.5 mph - N/A   Clear
10:15 AM 63.1 °F 48.4 °F 59% 29.90 in 10.0 mi NNW 5.8 mph - N/A   Clear
10:35 AM 64.2 °F 48.6 °F 57% 29.90 in 10.0 mi NNW 5.8 mph - N/A   Clear
10:55 AM 65.3 °F 48.4 °F 54% 29.90 in 10.0 mi NW 6.9 mph - N/A   Clear
11:15 AM 65.8 °F 46.8 °F 50% 29.90 in 10.0 mi NNW 5.8 mph - N/A   Clear
11:35 AM 66.4 °F 47.1 °F 50% 29.90 in 10.0 mi NW 11.5 mph 17.3 mph N/A   Scattered Clouds
11:55 AM 67.5 °F 46.0 °F 46% 29.90 in 10.0 mi NW 8.1 mph 16.1 mph N/A   Scattered Clouds
12:15 PM 68.4 °F 45.0 °F 43% 29.90 in 10.0 mi North 5.8 mph - N/A   Clear
12:35 PM 68.0 °F 45.1 °F 44% 29.90 in 10.0 mi NW 11.5 mph 18.4 mph N/A   Scattered Clouds
12:55 PM 68.5 °F 45.5 °F 44% 29.90 in 10.0 mi NW 4.6 mph 16.1 mph N/A   Clear
1:15 PM 68.7 °F 45.7 °F 44% 29.90 in 10.0 mi NW 5.8 mph - N/A   Scattered Clouds
1:35 PM 68.9 °F 45.9 °F 44% 29.89 in 10.0 mi WNW 10.4 mph 23.0 mph N/A   Mostly Cloudy
1:55 PM 68.7 °F 46.6 °F 45% 29.89 in 10.0 mi NW 8.1 mph - N/A   Mostly Cloudy
2:15 PM 68.5 °F 45.1 °F 43% 29.89 in 10.0 mi NW 9.2 mph 19.6 mph N/A   Scattered Clouds
2:35 PM 68.7 °F 46.6 °F 45% 29.89 in 10.0 mi NW 11.5 mph 17.3 mph N/A   Scattered Clouds
2:55 PM 70.0 °F 45.9 °F 42% 29.88 in 10.0 mi NW 11.5 mph 18.4 mph N/A   Scattered Clouds
3:15 PM 69.3 °F 46.0 °F 43% 29.88 in 10.0 mi NW 9.2 mph 18.4 mph N/A   Mostly Cloudy
3:35 PM 70.7 °F 46.4 °F 42% 29.87 in 10.0 mi WNW 11.5 mph 19.6 mph N/A   Mostly Cloudy
3:55 PM 69.6 °F 46.2 °F 43% 29.88 in 10.0 mi NW 11.5 mph 19.6 mph N/A   Scattered Clouds
4:15 PM 67.1 °F 46.0 °F 47% 29.88 in 10.0 mi NW 9.2 mph - N/A   Clear
4:35 PM 69.6 °F 45.9 °F 43% 29.88 in 10.0 mi NW 10.4 mph - N/A   Scattered Clouds
4:55 PM 67.8 °F 46.8 °F 47% 29.88 in 10.0 mi NNW 4.6 mph - N/A   Scattered Clouds
5:15 PM 67.6 °F 45.9 °F 46% 29.88 in 10.0 mi NNW 5.8 mph 9.2 mph N/A   Clear
5:35 PM 67.3 °F 46.2 °F 47% 29.89 in 10.0 mi North 3.5 mph - N/A   Scattered Clouds
5:55 PM 66.2 °F 46.4 °F 49% 29.89 in 10.0 mi NNW 3.5 mph - N/A   Scattered Clouds
6:15 PM 64.8 °F 46.8 °F 52% 29.89 in 10.0 mi Calm Calm - N/A   Scattered Clouds
6:35 PM 62.8 °F 47.3 °F 57% 29.89 in 10.0 mi Calm Calm - N/A   Clear
6:55 PM 60.1 °F 48.2 °F 65% 29.89 in 10.0 mi Calm Calm - N/A   Clear
7:15 PM 59.0 °F 47.7 °F 66% 29.89 in 10.0 mi NNW 3.5 mph - N/A   Clear
7:35 PM 57.6 °F 48.2 °F 71% 29.90 in 10.0 mi Calm Calm - N/A   Clear
7:55 PM 55.4 °F 48.2 °F 77% 29.90 in 10.0 mi Calm Calm - N/A   Clear
8:15 PM 54.0 °F 47.8 °F 80% 29.91 in 10.0 mi Calm Calm - N/A   Clear
8:35 PM 53.6 °F 47.7 °F 80% 29.92 in 10.0 mi Calm Calm - N/A   Clear
8:55 PM 52.9 °F 47.7 °F 82% 29.93 in 10.0 mi Calm Calm - N/A   Clear
9:15 PM 52.2 °F 47.3 °F 83% 29.93 in 10.0 mi Calm Calm - N/A   Clear
9:35 PM 51.1 °F 47.3 °F 87% 29.94 in 10.0 mi Calm Calm - N/A   Clear
9:55 PM 50.4 °F 48.7 °F 94% 29.94 in 10.0 mi Calm Calm - N/A   Clear
10:15 PM 49.6 °F 48.4 °F 95% 29.94 in 10.0 mi Calm Calm - N/A   Clear
10:35 PM 49.5 °F 49.5 °F 100% 29.95 in 10.0 mi Calm Calm - N/A   Clear
10:55 PM 49.1 °F 48.9 °F 99% 29.95 in 10.0 mi Calm Calm - N/A   Clear
11:15 PM 49.1 °F 48.4 °F 97% 29.96 in 10.0 mi Calm Calm - N/A   Clear
11:35 PM 48.4 °F 48.4 °F 100% 29.96 in 10.0 mi Calm Calm - N/A   Clear
11:55 PM 48.6 °F 48.6 °F 100% 29.96 in 10.0 mi Calm Calm - N/A   Clear